GW5715 Weather Reports


Display with metric or nautical units.
time (UTC)temp
F
wind
direction
speed
MPH
gust
MPH
rain 1hr
in
rain 24hr
in
rain mn
in
humidity
%
barometer
mb
20260504192449 74 317 0.0 0.0 0.00 0.00 0.00 79 1007.9
20260504191949 74 292 0.0 0.0 0.00 0.00 0.00 79 1007.6
20260504191446 74 305 0.0 0.0 0.00 0.00 0.00 79 1008.0
20260504190941 74 295 0.0 0.0 0.00 0.00 0.00 79 1007.9
20260504190437 74 304 0.0 0.0 0.00 0.00 0.00 79 1008.1
20260504185934 74 326 0.0 0.0 0.00 0.00 0.00 79 1008.0
20260504185432 74 318 0.0 0.0 0.00 0.00 0.00 79 1007.9
20260504184927 74 341 0.0 0.0 0.00 0.00 0.00 79 1008.0
20260504184423 74 30 0.0 0.0 0.00 0.00 0.00 79 1008.2
20260504183919 74 204 0.0 0.0 0.00 0.00 0.00 79 1008.4
20260504183417 74 310 0.0 0.0 0.00 0.00 0.00 79 1008.3
20260504182915 74 278 0.0 0.0 0.00 0.41 0.41 78 1008.4
20260504182411 75 186 0.0 0.0 0.00 0.41 0.41 78 1008.7
20260504181908 75 330 0.0 0.0 0.00 0.41 0.41 78 1008.7
20260504181405 75 271 0.0 0.0 0.00 0.41 0.41 78 1008.5
20260504180904 75 298 0.0 0.0 0.00 0.41 0.41 77 1008.8
20260504180402 75 129 0.0 0.0 0.00 0.41 0.41 77 1008.8
20260504175900 75 309 0.0 0.0 0.00 0.41 0.41 78 1009.1
20260504175356 75 326 0.0 0.0 0.00 0.41 0.41 77 1008.9
20260504174855 76 43 0.0 0.0 0.00 0.41 0.41 76 1008.8
20260504174352 76 309 0.0 0.0 0.00 0.41 0.41 75 1008.7
20260504173849 77 326 0.0 0.0 0.00 0.41 0.41 73 1008.8
20260504173345 77 312 0.0 0.0 0.00 0.41 0.41 70 1009.0
20260504172843 77 156 1.0 3.0 0.00 0.41 0.41 69 1008.8
20260504172339 77 122 2.0 5.0 0.00 0.41 0.41 69 1008.4
20260504171835 77 136 0.0 0.0 0.00 0.41 0.41 70 1008.3
20260504171332 77 219 0.0 0.0 0.00 0.41 0.41 72 1008.5
20260504170830 76 179 0.0 0.0 0.00 0.41 0.41 72 1008.1
20260504170326 76 197 0.0 0.0 0.00 0.41 0.41 72 1008.2
20260504160244 75 156 1.0 2.0 0.00 0.41 0.41 75 1008.2
20260504150710 76 119 0.0 0.0 0.00 0.41 0.41 75 1008.0
20260504150207 76 144 1.0 2.0 0.00 0.41 0.41 74 1007.8
20260504141136 76 121 0.0 0.0 0.00 0.41 0.41 78 1007.1
20260504140633 75 165 3.0 6.0 0.00 0.41 0.41 79 1007.1
20260504140128 74 198 3.0 5.0 0.00 0.41 0.41 82 1006.9
20260504130556 73 110 5.0 7.0 0.05 0.37 0.37 92 1005.9
20260504110444 91 308 0.0 0.0 0.00 0.22 0.22 46 1004.3
20260504100407 91 291 2.0 5.0 0.00 0.22 0.22 48 1004.6
20260504081800 90 306 0.0 0.0 0.00 0.22 0.22 53 1006.3
20260504081256 90 350 0.0 1.0 0.00 0.22 0.22 53 1006.6
20260504080753 91 359 1.0 2.0 0.00 0.22 0.22 52 1006.7
20260504080249 90 66 0.0 0.0 0.00 0.22 0.22 53 1006.7
20260504070217 90 248 0.0 0.0 0.00 0.22 0.22 58 1008.4
20260504060137 88 358 0.0 0.0 0.00 0.22 0.22 62 1009.0
20260504050605 83 32 2.0 3.0 0.00 0.22 0.22 71 1009.6
20260504045559 84 277 2.0 2.0 0.00 0.22 0.22 71 1009.6
20260504045054 84 296 0.0 0.0 0.00 0.22 0.22 74 1009.5
20260504044552 83 299 0.0 1.0 0.00 0.22 0.22 75 1009.5
20260504044049 83 280 0.0 0.0 0.00 0.22 0.22 75 1009.6
20260504043546 82 115 0.0 0.0 0.00 0.22 0.22 77 1009.5
20260504043043 82 282 0.0 0.0 0.00 0.22 0.22 77 1009.6
20260504042540 82 36 1.0 5.0 0.00 0.22 0.22 77 1009.6
20260504042037 82 316 1.0 2.0 0.00 0.22 0.22 77 1009.7
20260504041533 82 337 0.0 0.0 0.00 0.22 0.22 79 1009.7
20260504041029 82 356 0.0 0.0 0.00 0.22 0.22 80 1009.9
20260504040527 81 23 5.0 8.0 0.00 0.22 0.22 80 1009.7
20260504040024 80 275 0.0 0.0 0.00 0.22 0.22 82 1009.6
20260504035521 80 342 0.0 0.0 0.00 0.22 0.22 84 1009.7
20260504035017 80 248 0.0 0.0 0.00 0.22 0.22 84 1009.5
20260504034514 80 290 3.0 3.0 0.00 0.22 0.22 84 1009.6
20260504034011 80 304 0.0 1.0 0.00 0.22 0.22 84 1009.3
20260504033509 79 253 0.0 1.0 0.00 0.22 0.22 85 1009.7
20260504033006 78 21 0.0 0.0 0.00 0.22 0.22 87 1009.2
20260504032503 78 301 0.0 0.0 0.00 0.22 0.22 88 1009.6
20260504032000 78 356 1.0 2.0 0.00 0.22 0.22 88 1009.3
20260504031456 77 5 1.0 2.0 0.00 0.22 0.22 89 1009.3
20260504030953 77 339 0.0 0.0 0.00 0.22 0.22 91 1009.0
20260504030450 76 303 1.0 2.0 0.00 0.22 0.22 91 1009.3
20260504025946 76 285 0.0 0.0 0.00 0.22 0.22 91 1009.2
20260504025443 76 326 0.0 0.0 0.00 0.22 0.22 92 1009.1
20260504024940 75 267 0.0 0.0 0.00 0.22 0.22 92 1009.2
20260504024437 75 217 0.0 0.0 0.00 0.22 0.22 92 1009.0
20260504023934 75 337 0.0 0.0 0.00 0.22 0.22 93 1008.9
20260504023430 74 288 0.0 0.0 0.00 0.22 0.22 93 1008.9
20260504022926 74 328 0.0 0.0 0.00 0.22 0.22 93 1008.9
20260504022423 73 276 1.0 1.0 0.00 0.22 0.22 92 1008.5
20260504021920 73 247 0.0 0.0 0.00 0.22 0.22 92 1008.9
20260504021417 73 248 0.0 0.0 0.00 0.22 0.22 93 1008.9
20260504020914 72 263 0.0 0.0 0.00 0.22 0.22 93 1008.8
20260504020411 71 296 0.0 0.0 0.00 0.22 0.22 93 1008.5
20260504015907 72 315 0.0 0.0 0.00 0.22 0.22 94 1008.5
20260504015403 71 330 0.0 0.0 0.00 0.22 0.22 93 1008.3
20260504014859 71 330 0.0 0.0 0.00 0.22 0.22 93 1008.3
20260504014355 71 301 0.0 0.0 0.00 0.22 0.22 93 1008.3
20260504013853 71 316 0.0 0.0 0.00 0.22 0.22 93 1008.2
20260504013351 71 292 0.0 0.0 0.00 0.22 0.22 93 1008.4
20260504012847 71 337 0.0 0.0 0.00 0.22 0.22 93 1008.8
20260504012345 71 323 0.0 0.0 0.00 0.22 0.22 93 1008.9
20260504011842 70 332 0.0 0.0 0.00 0.22 0.22 93 1008.8
20260504011338 70 313 0.0 0.0 0.00 0.22 0.22 92 1008.5
20260504010835 70 341 0.0 0.0 0.12 0.22 0.22 92 1008.8
20260504010330 70 21 0.0 0.0 0.59 0.22 0.22 92 1008.2
20260504005827 71 320 0.0 0.0 0.47 0.18 0.18 91 1008.3
20260504005324 71 308 0.0 0.0 0.73 0.12 0.12 89 1009.0
20260504004822 73 324 0.0 0.0 0.61 0.10 0.10 86 1008.5
20260504004319 73 325 0.0 0.0 0.00 0.00 0.00 83 1008.9
20260504003815 72 294 0.0 0.0 0.00 0.00 0.00 84 1008.9
20260504003312 72 44 1.0 1.0 0.00 0.00 0.00 86 1009.1
20260504002809 73 141 1.0 1.0 0.00 0.00 0.00 90 1008.7
20260504002306 74 1 0.0 0.0 0.00 0.00 0.00 92 1008.9
20260504001803 74 342 0.0 0.0 0.00 0.00 0.00 91 1008.7
20260504001300 74 331 0.0 0.0 0.00 0.00 0.00 92 1008.8
20260504000757 74 97 0.0 0.0 0.00 0.00 0.00 91 1008.4
20260504000254 74 316 0.0 0.0 0.00 0.00 0.00 91 1008.3
20260503235752 74 313 0.0 0.0 0.00 0.00 0.00 91 1008.3
20260503235249 74 315 0.0 0.0 0.00 0.00 0.00 91 1008.0
20260503234747 74 316 0.0 0.0 0.00 0.00 0.00 91 1008.1
20260503234245 74 317 0.0 0.0 0.00 0.00 0.00 90 1008.0
20260503233742 74 332 0.0 0.0 0.00 0.00 0.00 90 1008.1
20260503233237 74 287 0.0 0.0 0.00 0.00 0.00 91 1008.1
20260503232734 74 255 0.0 0.0 0.00 0.00 0.00 90 1007.7
20260503232232 75 271 0.0 0.0 0.00 0.00 0.00 90 1007.7
20260503231730 74 277 0.0 0.0 0.00 0.00 0.00 90 1007.7
20260503231226 74 317 0.0 0.0 0.00 0.00 0.00 91 1007.7
20260503230722 74 307 0.0 0.0 0.00 0.00 0.00 91 1007.9
20260503230220 74 340 0.0 0.0 0.00 0.00 0.00 91 1007.8
20260503225717 74 239 0.0 0.0 0.00 0.00 0.00 90 1007.7
20260503225217 74 301 0.0 0.0 0.00 0.00 0.00 91 1007.8
20260503224715 74 327 0.0 0.0 0.00 0.00 0.00 91 1007.7
20260503224212 74 325 0.0 0.0 0.00 0.00 0.00 91 1007.5
20260503223710 74 319 0.0 0.0 0.00 0.00 0.00 91 1007.2
20260503223207 74 312 0.0 0.0 0.00 0.00 0.00 91 1007.0
20260503222703 74 319 0.0 0.0 0.00 0.00 0.00 91 1007.2
20260503222201 74 317 0.0 0.0 0.00 0.00 0.00 91 1007.2
20260503221700 74 324 0.0 0.0 0.00 0.00 0.00 91 1007.1
20260503221156 74 315 0.0 0.0 0.00 0.00 0.00 91 1006.6
20260503220653 74 295 0.0 0.0 0.00 0.00 0.00 91 1006.7
20260503220149 74 312 0.0 0.0 0.00 0.00 0.00 91 1006.7
20260503215647 74 358 0.0 0.0 0.00 0.00 0.00 91 1006.8
20260503215143 74 317 0.0 0.0 0.00 0.00 0.00 90 1006.4
20260503214643 74 300 0.0 0.0 0.00 0.00 0.00 90 1006.6
20260503214138 74 230 1.0 2.0 0.00 0.00 0.00 90 1006.3
20260503213637 75 325 1.0 2.0 0.00 0.00 0.00 90 1006.4
20260503213133 75 321 0.0 0.0 0.00 0.00 0.00 90 1006.3
20260503212631 75 283 0.0 1.0 0.00 0.00 0.00 89 1006.3
20260503212128 75 311 0.0 0.0 0.00 0.00 0.00 89 1006.5
20260503211626 75 256 0.0 2.0 0.00 0.00 0.00 89 1006.5
20260503211121 75 327 0.0 1.0 0.00 0.00 0.00 89 1006.6
20260503210618 75 233 0.0 0.0 0.00 0.00 0.00 89 1006.6
20260503210114 75 326 0.0 0.0 0.00 0.00 0.00 88 1006.6
20260503205610 75 248 0.0 2.0 0.00 0.00 0.00 88 1006.7
20260503205107 76 292 1.0 2.0 0.00 0.00 0.00 88 1007.0
20260503204604 76 313 0.0 0.0 0.00 0.00 0.00 88 1006.8
20260503204101 76 289 0.0 0.0 0.00 0.00 0.00 88 1007.1
20260503203558 76 251 2.0 3.0 0.00 0.00 0.00 87 1007.0
20260503203055 76 246 0.0 2.0 0.00 0.00 0.00 87 1007.1
20260503202553 76 335 0.0 0.0 0.00 0.00 0.00 87 1007.1
20260503202051 76 249 0.0 0.0 0.00 0.00 0.00 87 1006.8
20260503201548 76 311 0.0 0.0 0.00 0.00 0.00 87 1007.1
20260503201046 76 297 0.0 1.0 0.00 0.00 0.00 87 1007.2
20260503200541 77 288 0.0 1.0 0.00 0.00 0.00 86 1007.7
20260503200038 77 324 0.0 0.0 0.00 0.00 0.00 86 1007.5
20260503195536 77 332 0.0 1.0 0.00 0.00 0.00 86 1007.6
20260503195032 77 320 1.0 1.0 0.00 0.00 0.00 86 1007.6
20260503194530 77 289 0.0 0.0 0.00 0.00 0.00 86 1007.3
20260503194029 77 303 0.0 0.0 0.00 0.00 0.00 85 1007.9
20260503193527 77 285 2.0 3.0 0.00 0.00 0.00 85 1007.9
20260503193021 77 300 0.0 0.0 0.00 0.00 0.00 85 1007.9